ASY223 OIZC-YAMB

Flight info

Callsign ASY223
Flight time N/A
Altitude 35000
Route OIZC DCT D61JI DCT PAXUR DCT KABIM DCT RITPO DCT IGANU DCT KARKU DCT EXOLU DCT BBB DCT AVKOR DCT AGELA DCT BOGAT DCT DORAM DCT VIRAM DCT GURAS DCT VATMO DCT IDASO DCT BIKEN DCT LAGOG DCT RUPTI DCT IGOGU DCT NILAM DCT MEKAR DCT VAMPI DCT GUNIP DCT NIREN DCT VESIS DCT MITOS DCT SUKRI DCT BOBAG DCT UXATI DCT POSOG DCT ANITO DCT PKP DCT MIMIX DCT RUPKA DCT SBR DCT BLI DCT NYOMA DCT ONOXA DCT GUNAM DCT ARG DCT BOYDI DCT TNK DCT BIKER DCT VINAX DCT DODRO DCT TAVEV DCT MEYJI DCT ROM DCT OK DCT AGIVA DCT YAMB
Aircraft C17/H-SDFGHIRWYLB1/LB1

Departure

Time 2026-05-05 08:33
Airport Chabahar Konarak International Airport (OIZC)

Arrival

Time N/A
Airport RAAF Base Amberley (YAMB)
Time Latitude Longitude Altitude Speed Heading
2026-05-05 08:28 25.43778 60.37922 25 ft 0 kts 266°
2026-05-05 08:30 25.43780 60.37917 25 ft 4 kts 290°
2026-05-05 08:30 25.43889 60.37930 30 ft 33 kts 356°
2026-05-05 08:31 25.44048 60.37673 27 ft 50 kts 273°
2026-05-05 08:31 25.44048 60.37326 26 ft 33 kts 261°
2026-05-05 08:31 25.44063 60.37256 28 ft 2 kts 345°
2026-05-05 08:31 25.44066 60.37255 27 ft 0 kts 353°
2026-05-05 08:32 25.44099 60.37257 28 ft 17 kts 10°
2026-05-05 08:32 25.44143 60.37363 26 ft 36 kts 87°
2026-05-05 08:32 25.44138 60.38007 27 ft 131 kts 92°
2026-05-05 08:32 25.44081 60.39298 168 ft 191 kts 96°
2026-05-05 08:33 25.43901 60.40681 1300 ft 177 kts 107°
2026-05-05 08:33 25.43590 60.42005 2609 ft 175 kts 105°
2026-05-05 08:33 25.43286 60.43368 3703 ft 193 kts 107°
2026-05-05 08:33 25.43029 60.44810 4911 ft 203 kts 89°
2026-05-05 08:34 25.42963 60.46531 5550 ft 249 kts 99°
2026-05-05 08:34 25.42605 60.48637 5843 ft 311 kts 103°
2026-05-05 08:34 25.42059 60.51183 6199 ft 366 kts 104°
2026-05-05 08:34 25.41405 60.54051 7082 ft 395 kts 104°
2026-05-05 08:35 25.40721 60.56978 9079 ft 392 kts 104°
2026-05-05 08:35 25.40063 60.59779 11734 ft 340 kts 103°
2026-05-05 08:35 25.39482 60.62083 15179 ft 286 kts 105°
2026-05-05 08:35 25.38888 60.64075 17361 ft 278 kts 105°
2026-05-05 08:36 25.38282 60.66232 17769 ft 312 kts 103°
2026-05-05 08:36 25.38219 60.68754 17782 ft 352 kts 77°
2026-05-05 08:36 25.38934 60.71522 17839 ft 396 kts 74°
2026-05-05 08:36 25.39163 60.74728 17897 ft 443 kts 93°
2026-05-05 08:37 25.38707 60.78212 17937 ft 469 kts 100°
2026-05-05 08:37 25.37981 60.81799 17945 ft 482 kts 103°
2026-05-05 08:37 25.37153 60.85375 17947 ft 473 kts 104°
2026-05-05 08:37 25.36310 60.88808 17925 ft 452 kts 104°
2026-05-05 08:38 25.35484 60.92081 17895 ft 434 kts 104°
2026-05-05 08:38 25.34675 60.95236 17829 ft 419 kts 104°
2026-05-05 08:38 25.33888 60.98286 17801 ft 406 kts 104°
2026-05-05 08:38 25.33127 61.01169 18489 ft 380 kts 105°
2026-05-05 08:39 25.32373 61.03957 19782 ft 377 kts 105°
2026-05-05 08:39 25.31623 61.06720 21235 ft 374 kts 105°
2026-05-05 08:39 25.30892 61.09407 22786 ft 365 kts 105°
2026-05-05 08:39 25.30309 61.12197 23426 ft 390 kts 98°
2026-05-05 08:40 25.29762 61.15275 23452 ft 429 kts 102°
2026-05-05 08:40 25.29028 61.18618 23454 ft 467 kts 103°
2026-05-05 08:40 25.28169 61.22220 23454 ft 502 kts 104°
2026-05-05 08:40 25.27217 61.26095 23495 ft 535 kts 104°
2026-05-05 08:41 25.26223 61.30097 23537 ft 535 kts 104°
2026-05-05 08:41 25.25406 61.33364 23537 ft 514 kts 104°
2026-05-05 08:42 25.25050 61.34784 23530 ft 509 kts 104°
2026-05-05 08:42 25.24108 61.38522 23508 ft 500 kts 104°
2026-05-05 08:42 25.23175 61.42203 23496 ft 492 kts 104°
2026-05-05 08:42 25.22264 61.45796 23486 ft 484 kts 104°
2026-05-05 08:43 25.22237 61.45904 23480 ft 484 kts 104°
2026-05-05 08:43 25.21388 61.49246 23487 ft 478 kts 104°
2026-05-05 08:43 25.20502 61.52733 23487 ft 480 kts 104°
2026-05-05 08:44 25.19583 61.56352 23528 ft 482 kts 104°
2026-05-05 08:44 25.18697 61.59838 23989 ft 472 kts 104°
2026-05-05 08:44 25.17812 61.63319 24118 ft 475 kts 104°
2026-05-05 08:44 25.16922 61.66809 24778 ft 454 kts 104°
2026-05-05 08:45 25.16145 61.70033 26334 ft 416 kts 103°
2026-05-05 08:45 25.15521 61.73002 27820 ft 377 kts 100°
2026-05-05 08:45 25.15055 61.75688 29245 ft 336 kts 98°
2026-05-05 08:45 25.14726 61.78082 30337 ft 302 kts 93°
2026-05-05 08:46 25.14794 61.80431 29916 ft 316 kts 68°
2026-05-05 08:46 25.15147 61.82934 29237 ft 346 kts 92°
2026-05-05 08:46 25.14778 61.85624 29069 ft 358 kts 102°
2026-05-05 08:47 25.13517 61.91019 29103 ft 371 kts 104°
2026-05-05 08:47 25.13172 61.92411 29093 ft 375 kts 104°
2026-05-05 08:48 25.12718 61.94227 29082 ft 380 kts 104°
2026-05-05 08:49 25.11758 61.98044 29092 ft 390 kts 104°
2026-05-05 08:49 25.10282 62.03885 29097 ft 405 kts 104°
2026-05-05 08:50 25.08744 62.09978 29095 ft 419 kts 104°
2026-05-05 08:50 25.07146 62.16324 29094 ft 433 kts 104°
2026-05-05 08:50 25.06329 62.19573 29102 ft 451 kts 104°
2026-05-05 08:51 25.05474 62.22985 29100 ft 482 kts 104°
2026-05-05 08:51 25.04560 62.26634 29101 ft 506 kts 104°
2026-05-05 08:51 25.03604 62.30450 29099 ft 519 kts 104°
2026-05-05 08:52 25.01662 62.38211 29087 ft 529 kts 104°
2026-05-05 08:52 24.99705 62.46033 29095 ft 531 kts 104°
2026-05-05 08:53 24.97735 62.53900 29146 ft 532 kts 104°
2026-05-05 08:53 24.96750 62.57828 29249 ft 531 kts 104°
2026-05-05 08:53 24.95771 62.61728 29431 ft 528 kts 104°
2026-05-05 08:53 24.94800 62.65594 29930 ft 519 kts 104°
2026-05-05 08:54 24.93837 62.69428 30073 ft 510 kts 104°
2026-05-05 08:54 24.93031 62.72734 33230 ft 397 kts 105°
2026-05-05 08:54 24.92387 62.75441 35628 ft 346 kts 103°
2026-05-05 08:54 24.91898 62.78108 35074 ft 372 kts 101°
2026-05-05 08:55 24.91334 62.81038 33952 ft 415 kts 103°
2026-05-05 08:55 24.90643 62.84214 33562 ft 428 kts 104°
2026-05-05 08:55 24.89919 62.87387 33810 ft 426 kts 104°
2026-05-05 08:56 24.88358 62.93725 33863 ft 433 kts 107°
2026-05-05 08:56 24.86638 63.00157 33865 ft 440 kts 107°
2026-05-05 08:56 24.85783 63.03415 33863 ft 451 kts 107°
2026-05-05 08:57 24.84883 63.06844 33863 ft 476 kts 107°
2026-05-05 08:57 24.83939 63.10434 33875 ft 502 kts 107°
2026-05-05 08:57 24.82940 63.14230 33875 ft 528 kts 107°
2026-05-05 08:58 24.80886 63.22051 33851 ft 529 kts 107°
2026-05-05 08:58 24.78849 63.29811 33849 ft 530 kts 107°
2026-05-05 08:59 24.76785 63.37670 33853 ft 534 kts 107°
2026-05-05 08:59 24.74737 63.45475 33836 ft 527 kts 107°
2026-05-05 09:00 24.72713 63.53205 33853 ft 526 kts 107°
2026-05-05 09:00 24.70697 63.60903 33838 ft 526 kts 107°
2026-05-05 09:01 24.68669 63.68649 33850 ft 525 kts 106°
2026-05-05 09:01 24.66656 63.76339 33849 ft 525 kts 107°
2026-05-05 09:02 24.64639 63.84066 33848 ft 524 kts 106°
2026-05-05 09:02 24.62633 63.91756 33849 ft 524 kts 106°
2026-05-05 09:03 24.60628 63.99440 33842 ft 523 kts 106°
2026-05-05 09:03 24.58960 64.05837 33851 ft 523 kts 106°
2026-05-05 09:04 24.56959 64.13527 33833 ft 523 kts 106°
2026-05-05 09:04 24.54965 64.21198 33832 ft 523 kts 106°
2026-05-05 09:05 24.52628 64.30191 33845 ft 522 kts 106°
2026-05-05 09:05 24.50974 64.36548 33847 ft 522 kts 106°
2026-05-05 09:06 24.48976 64.44230 33840 ft 521 kts 106°
2026-05-05 09:06 24.46986 64.51879 33840 ft 521 kts 106°
2026-05-05 09:07 24.44991 64.59541 33850 ft 521 kts 106°
2026-05-05 09:07 24.43017 64.67121 33845 ft 521 kts 106°
2026-05-05 09:08 24.41024 64.74768 33846 ft 520 kts 106°
2026-05-05 09:08 24.39042 64.82372 33849 ft 520 kts 106°
2026-05-05 09:09 24.37049 64.90021 33836 ft 520 kts 106°
2026-05-05 09:09 24.35065 64.97632 33829 ft 520 kts 106°
2026-05-05 09:10 24.33078 65.05251 33842 ft 519 kts 106°
2026-05-05 09:10 24.31093 65.12862 33835 ft 519 kts 106°
2026-05-05 09:11 24.29110 65.20463 33843 ft 519 kts 106°
2026-05-05 09:11 24.27121 65.28087 33838 ft 519 kts 106°
2026-05-05 09:12 24.25147 65.35655 33838 ft 519 kts 106°
2026-05-05 09:12 24.23156 65.43291 33841 ft 518 kts 106°
2026-05-05 09:13 24.21187 65.50848 33839 ft 518 kts 106°
2026-05-05 09:13 24.19209 65.58449 33844 ft 518 kts 106°
2026-05-05 09:14 24.17237 65.66033 33843 ft 518 kts 106°
2026-05-05 09:14 24.15258 65.73638 33845 ft 518 kts 106°
2026-05-05 09:15 24.13287 65.81210 33842 ft 518 kts 106°
2026-05-05 09:15 24.11317 65.88785 33843 ft 518 kts 106°
2026-05-05 09:16 24.09344 65.96369 33852 ft 518 kts 106°
2026-05-05 09:16 24.07377 66.03938 33855 ft 518 kts 106°
2026-05-05 09:17 24.05418 66.11477 33849 ft 518 kts 106°
2026-05-05 09:17 24.03442 66.19090 33851 ft 518 kts 106°
2026-05-05 09:18 24.01476 66.26663 33855 ft 518 kts 106°
2026-05-05 09:18 23.99512 66.34206 33843 ft 518 kts 106°
2026-05-05 09:19 23.97531 66.41782 33845 ft 518 kts 106°
2026-05-05 09:19 23.95551 66.49354 33850 ft 518 kts 106°
2026-05-05 09:20 23.93572 66.56920 33838 ft 518 kts 106°
2026-05-05 09:20 23.91590 66.64504 33854 ft 518 kts 106°
2026-05-05 09:21 23.89611 66.72072 33860 ft 518 kts 106°
2026-05-05 09:21 23.87633 66.79642 33852 ft 518 kts 106°
2026-05-05 09:22 23.84634 66.86676 33870 ft 510 kts 133°
2026-05-05 09:22 23.79454 66.91887 33857 ft 508 kts 144°
2026-05-05 09:23 23.73937 66.96763 33866 ft 515 kts 140°
2026-05-05 09:23 23.68758 67.02234 33858 ft 527 kts 137°
2026-05-05 09:24 23.63560 67.07998 33855 ft 537 kts 136°
2026-05-05 09:24 23.58310 67.13878 33859 ft 546 kts 136°
2026-05-05 09:25 23.52984 67.19851 33866 ft 553 kts 136°
2026-05-05 09:25 23.47596 67.25888 33864 ft 559 kts 136°
2026-05-05 09:26 23.42157 67.31978 33870 ft 564 kts 136°
2026-05-05 09:26 23.36663 67.38127 33863 ft 568 kts 136°
2026-05-05 09:27 23.31133 67.44313 33860 ft 571 kts 136°
2026-05-05 09:27 23.25596 67.50491 33864 ft 574 kts 136°
2026-05-05 09:28 23.20008 67.56721 33870 ft 576 kts 136°
2026-05-05 09:28 23.14407 67.62952 33871 ft 578 kts 136°
2026-05-05 09:29 23.08771 67.69221 33867 ft 579 kts 136°
2026-05-05 09:29 23.03143 67.75476 33860 ft 580 kts 136°
2026-05-05 09:30 22.97478 67.81750 33852 ft 581 kts 136°
2026-05-05 09:30 22.91819 67.88011 33856 ft 582 kts 136°
2026-05-05 09:31 22.86136 67.94299 33866 ft 582 kts 136°
2026-05-05 09:31 22.80474 68.00562 33861 ft 583 kts 136°
2026-05-05 09:32 22.74822 68.06807 33865 ft 583 kts 136°
2026-05-05 09:32 22.69115 68.13109 33860 ft 583 kts 136°
2026-05-05 09:33 22.63466 68.19345 33872 ft 583 kts 136°
2026-05-05 09:33 22.57789 68.25604 33862 ft 583 kts 136°
2026-05-05 09:34 22.52086 68.31888 33860 ft 584 kts 136°
2026-05-05 09:34 22.46398 68.38152 33862 ft 583 kts 136°
2026-05-05 09:35 22.40713 68.44407 33864 ft 583 kts 136°
2026-05-05 09:35 22.32176 68.53800 33869 ft 583 kts 135°
2026-05-05 09:36 22.26485 68.60053 33862 ft 583 kts 135°
2026-05-05 09:36 22.20804 68.66292 33865 ft 583 kts 135°
2026-05-05 09:37 22.15138 68.72514 33864 ft 583 kts 135°
2026-05-05 09:37 22.09457 68.78751 33868 ft 583 kts 135°
2026-05-05 09:38 22.03767 68.84996 33869 ft 583 kts 135°
2026-05-05 09:38 21.98089 68.91222 33868 ft 583 kts 135°
2026-05-05 09:39 21.92387 68.97468 33875 ft 583 kts 135°
2026-05-05 09:39 21.86698 69.03699 33876 ft 583 kts 135°
2026-05-05 09:40 21.81017 69.09919 33874 ft 583 kts 135°
2026-05-05 09:40 21.75362 69.16108 33875 ft 583 kts 135°
2026-05-05 09:41 21.69677 69.22329 33875 ft 583 kts 135°
2026-05-05 09:41 21.64001 69.28540 33874 ft 583 kts 135°
2026-05-05 09:42 21.58290 69.34788 33876 ft 583 kts 135°
2026-05-05 09:42 21.52647 69.40962 33876 ft 583 kts 135°
2026-05-05 09:43 21.46961 69.47179 33861 ft 583 kts 135°
2026-05-05 09:43 21.41291 69.53393 33876 ft 582 kts 135°
2026-05-05 09:44 21.35624 69.59618 33875 ft 582 kts 135°
2026-05-05 09:44 21.29970 69.65830 33875 ft 582 kts 135°
2026-05-05 09:45 21.24316 69.72039 33876 ft 582 kts 135°
2026-05-05 09:45 21.18693 69.78216 33869 ft 581 kts 135°
2026-05-05 09:46 21.13062 69.84413 33872 ft 581 kts 135°
2026-05-05 09:46 21.07428 69.90622 33874 ft 581 kts 135°
2026-05-05 09:47 21.01789 69.96837 33869 ft 581 kts 135°
2026-05-05 09:47 20.96127 70.03077 33869 ft 581 kts 135°
2026-05-05 09:48 20.90531 70.09243 33873 ft 581 kts 135°
2026-05-05 09:48 20.85808 70.14447 33873 ft 581 kts 135°
2026-05-05 09:49 20.80196 70.20631 33872 ft 581 kts 135°
2026-05-05 09:49 20.74576 70.26826 33872 ft 581 kts 135°
2026-05-05 09:50 20.68941 70.33034 33869 ft 581 kts 135°
2026-05-05 09:50 20.63320 70.39228 33870 ft 581 kts 135°
2026-05-05 09:51 20.57720 70.45405 33872 ft 581 kts 135°
2026-05-05 09:51 20.52066 70.51642 33874 ft 581 kts 135°
2026-05-05 09:52 20.46480 70.57807 33876 ft 581 kts 135°
2026-05-05 09:52 20.40868 70.64008 33876 ft 581 kts 135°
2026-05-05 09:53 20.35254 70.70212 33873 ft 581 kts 135°
2026-05-05 09:53 20.29646 70.76411 33868 ft 581 kts 135°
2026-05-05 09:54 20.24037 70.82609 33870 ft 580 kts 135°
2026-05-05 09:54 20.18438 70.88795 33878 ft 580 kts 135°
2026-05-05 09:55 20.12831 70.94991 33876 ft 580 kts 135°
2026-05-05 09:55 20.07266 71.01141 33870 ft 580 kts 135°
2026-05-05 09:56 20.01666 71.07330 33868 ft 580 kts 135°
2026-05-05 09:56 19.96075 71.13508 33868 ft 580 kts 135°
2026-05-05 09:57 19.90483 71.19687 33868 ft 579 kts 135°
2026-05-05 09:57 19.85765 71.26615 33887 ft 581 kts 121°
2026-05-05 09:58 19.82004 71.34058 33867 ft 555 kts 117°
2026-05-05 09:58 19.80325 71.37639 33853 ft 531 kts 116°
2026-05-05 09:58 19.78732 71.41105 33863 ft 512 kts 116°
2026-05-05 09:59 19.77208 71.44448 33863 ft 495 kts 116°
2026-05-05 09:59 19.75755 71.47648 33864 ft 481 kts 116°
2026-05-05 09:59 19.74311 71.50838 33866 ft 466 kts 116°
2026-05-05 09:59 19.72946 71.53856 33865 ft 453 kts 116°
2026-05-05 10:00 19.71603 71.56827 33866 ft 441 kts 116°
2026-05-05 10:00 19.70297 71.59720 33869 ft 429 kts 116°
2026-05-05 10:00 19.69025 71.62538 33867 ft 417 kts 116°
2026-05-05 10:00 19.67790 71.65278 33867 ft 406 kts 116°
2026-05-05 10:01 19.66589 71.67943 33869 ft 395 kts 116°
2026-05-05 10:01 19.65424 71.70532 33862 ft 384 kts 116°
2026-05-05 10:01 19.64291 71.73052 33861 ft 373 kts 116°
2026-05-05 10:01 19.63189 71.75504 33859 ft 362 kts 116°
2026-05-05 10:02 19.62124 71.77879 33857 ft 351 kts 116°
2026-05-05 10:02 19.61090 71.80187 33858 ft 344 kts 116°
2026-05-05 10:02 19.59032 71.84777 33887 ft 345 kts 116°
2026-05-05 10:03 19.56967 71.89385 33886 ft 347 kts 116°
2026-05-05 10:03 19.54891 71.94021 33891 ft 349 kts 116°
2026-05-05 10:04 19.52803 71.98692 33888 ft 351 kts 116°
2026-05-05 10:04 19.50716 72.03363 33894 ft 354 kts 116°
2026-05-05 10:05 19.48597 72.08104 33889 ft 357 kts 116°
2026-05-05 10:05 19.46460 72.12885 33890 ft 361 kts 116°
2026-05-05 10:06 19.44297 72.17721 33895 ft 365 kts 116°
2026-05-05 10:06 19.42096 72.22642 33892 ft 369 kts 116°
2026-05-05 10:07 19.39887 72.27582 33876 ft 374 kts 116°
2026-05-05 10:07 19.37652 72.32591 33894 ft 378 kts 116°
2026-05-05 10:08 19.35407 72.37624 33894 ft 383 kts 116°
2026-05-05 10:08 19.33113 72.42764 33889 ft 388 kts 117°
2026-05-05 10:09 19.30186 72.47582 33890 ft 391 kts 129°
2026-05-05 10:09 19.26666 72.52116 33899 ft 418 kts 132°
2026-05-05 10:10 19.24694 72.54518 33909 ft 445 kts 133°
2026-05-05 10:10 19.22594 72.57048 33906 ft 467 kts 133°
2026-05-05 10:10 19.18270 72.62228 33885 ft 471 kts 133°
2026-05-05 10:11 19.13957 72.67393 33877 ft 469 kts 133°
2026-05-05 10:11 19.09614 72.72595 33870 ft 468 kts 133°
2026-05-05 10:12 19.05351 72.77705 33866 ft 466 kts 133°
2026-05-05 10:12 19.01064 72.82843 33872 ft 465 kts 133°
2026-05-05 10:13 18.96800 72.87954 33878 ft 463 kts 133°
2026-05-05 10:13 18.92542 72.93060 33875 ft 462 kts 133°
2026-05-05 10:14 18.88301 72.98147 33872 ft 461 kts 133°
2026-05-05 10:14 18.84065 73.03229 33877 ft 460 kts 133°
2026-05-05 10:15 18.79838 73.08304 33877 ft 460 kts 133°
2026-05-05 10:15 18.75623 73.13364 33888 ft 459 kts 133°
2026-05-05 10:16 18.71412 73.18422 33889 ft 458 kts 133°
2026-05-05 10:16 18.67239 73.23436 33900 ft 457 kts 133°
2026-05-05 10:17 18.63034 73.28463 33900 ft 457 kts 133°
2026-05-05 10:17 18.58831 73.33485 33901 ft 457 kts 133°
2026-05-05 10:18 18.54633 73.38504 33912 ft 457 kts 133°
2026-05-05 10:18 18.50431 73.43530 33915 ft 456 kts 133°
2026-05-05 10:19 18.46243 73.48543 33917 ft 456 kts 133°
2026-05-05 10:19 18.42054 73.53553 33918 ft 456 kts 133°
2026-05-05 10:20 18.37858 73.58572 33918 ft 456 kts 133°
2026-05-05 10:20 18.33658 73.63564 33920 ft 456 kts 133°
2026-05-05 10:21 18.29453 73.68556 33922 ft 455 kts 133°
2026-05-05 10:21 18.25259 73.73541 33921 ft 455 kts 133°
2026-05-05 10:22 18.21064 73.78521 33920 ft 455 kts 133°
2026-05-05 10:22 18.16872 73.83506 33915 ft 455 kts 133°
2026-05-05 10:23 18.12686 73.88479 33917 ft 454 kts 133°
2026-05-05 10:23 18.08494 73.93458 33903 ft 454 kts 133°
2026-05-05 10:24 18.04331 73.98413 33908 ft 454 kts 133°
2026-05-05 10:24 18.00150 74.03377 33905 ft 454 kts 133°
2026-05-05 10:25 17.95967 74.08342 33896 ft 453 kts 133°
2026-05-05 10:25 17.91791 74.13300 33894 ft 453 kts 133°
2026-05-05 10:26 17.87621 74.18250 33894 ft 453 kts 133°
2026-05-05 10:26 17.83448 74.23203 33878 ft 453 kts 133°
2026-05-05 10:27 17.79298 74.28128 33884 ft 452 kts 133°
2026-05-05 10:27 17.75105 74.33090 33880 ft 452 kts 133°
2026-05-05 10:28 17.70948 74.38000 33872 ft 452 kts 133°
2026-05-05 10:28 17.66771 74.42932 33881 ft 452 kts 133°
2026-05-05 10:29 17.62608 74.47846 33885 ft 451 kts 133°
2026-05-05 10:29 17.58421 74.52789 33874 ft 451 kts 133°
2026-05-05 10:30 17.54257 74.57705 33882 ft 451 kts 133°
2026-05-05 10:30 17.50113 74.62596 33885 ft 451 kts 133°
2026-05-05 10:31 17.45936 74.67519 33875 ft 451 kts 132°
2026-05-05 10:31 17.41760 74.72414 33883 ft 451 kts 133°
2026-05-05 10:32 17.37570 74.77322 33883 ft 451 kts 133°
2026-05-05 10:32 17.33401 74.82206 33880 ft 451 kts 133°
2026-05-05 10:33 17.29222 74.87102 33891 ft 451 kts 133°
2026-05-05 10:33 17.25743 74.91178 33888 ft 451 kts 133°
2026-05-05 10:34 17.21566 74.96070 33891 ft 451 kts 133°
2026-05-05 10:34 17.16716 75.01750 33893 ft 450 kts 132°
2026-05-05 10:35 17.13207 75.05834 33902 ft 450 kts 132°
2026-05-05 10:35 17.09009 75.10695 33901 ft 450 kts 132°
2026-05-05 10:36 17.04834 75.15522 33909 ft 450 kts 132°
2026-05-05 10:36 17.00643 75.20365 33908 ft 450 kts 132°
2026-05-05 10:37 16.96443 75.25216 33903 ft 449 kts 133°
2026-05-05 10:37 16.92254 75.30053 33905 ft 449 kts 133°
2026-05-05 10:38 16.88068 75.34885 33904 ft 449 kts 132°
2026-05-05 10:38 16.83877 75.39720 33901 ft 449 kts 132°
2026-05-05 10:39 16.79681 75.44554 33905 ft 448 kts 132°
2026-05-05 10:39 16.75498 75.49375 33903 ft 448 kts 133°
2026-05-05 10:40 16.71318 75.54193 33897 ft 448 kts 132°
2026-05-05 10:40 16.67164 75.58981 33897 ft 447 kts 132°
2026-05-05 10:41 16.62987 75.63795 33901 ft 447 kts 132°
2026-05-05 10:41 16.58821 75.68598 33900 ft 447 kts 132°
2026-05-05 10:42 16.52552 75.75826 33898 ft 447 kts 132°
2026-05-05 10:43 16.48450 75.80678 33896 ft 446 kts 127°
2026-05-05 10:43 16.45145 75.86141 33895 ft 445 kts 119°
2026-05-05 10:44 16.42238 75.91821 33896 ft 444 kts 117°
2026-05-05 10:44 16.39400 75.97542 33889 ft 443 kts 117°
2026-05-05 10:45 16.36590 76.03240 33886 ft 443 kts 117°
2026-05-05 10:45 16.33783 76.08941 33886 ft 442 kts 117°
2026-05-05 10:45 16.32561 76.11878 33668 ft 443 kts 109°
2026-05-05 10:46 16.31652 76.14920 33729 ft 440 kts 109°
2026-05-05 10:46 16.29332 76.20823 33700 ft 440 kts 115°
2026-05-05 10:47 16.26656 76.26516 33649 ft 441 kts 117°
2026-05-05 10:47 16.23883 76.32234 33615 ft 441 kts 117°
2026-05-05 10:48 16.21119 76.37927 33594 ft 442 kts 117°
2026-05-05 10:48 16.18344 76.43642 33570 ft 442 kts 117°
2026-05-05 10:49 16.15579 76.49341 33547 ft 442 kts 117°
2026-05-05 10:49 16.12802 76.55076 33532 ft 442 kts 117°
2026-05-05 10:50 16.10052 76.60791 33517 ft 443 kts 117°
2026-05-05 10:50 16.07298 76.66514 33496 ft 443 kts 117°
2026-05-05 10:51 16.04546 76.72239 33481 ft 443 kts 117°
2026-05-05 10:51 16.01809 76.77924 33473 ft 443 kts 117°
2026-05-05 10:52 15.99040 76.83685 33451 ft 442 kts 117°
2026-05-05 10:52 15.96304 76.89377 33443 ft 442 kts 117°
2026-05-05 10:53 15.93547 76.95131 33424 ft 442 kts 117°
2026-05-05 10:53 15.90828 77.00825 33421 ft 442 kts 117°
2026-05-05 10:54 15.88103 77.06529 33421 ft 441 kts 117°
2026-05-05 10:54 15.85381 77.12238 33413 ft 441 kts 117°
2026-05-05 10:55 15.82657 77.17950 33405 ft 441 kts 117°
2026-05-05 10:55 15.79938 77.23660 33393 ft 441 kts 117°
2026-05-05 10:56 15.77216 77.29374 33386 ft 441 kts 117°
2026-05-05 10:56 15.74499 77.35087 33383 ft 441 kts 117°
2026-05-05 10:57 15.71782 77.40793 33379 ft 441 kts 117°
2026-05-05 10:57 15.69066 77.46505 33368 ft 441 kts 117°
2026-05-05 10:58 15.66354 77.52207 33357 ft 441 kts 117°
2026-05-05 10:58 15.63658 77.57872 33346 ft 441 kts 117°
2026-05-05 10:59 15.60927 77.63605 33356 ft 440 kts 117°
2026-05-05 10:59 15.58243 77.69265 33348 ft 440 kts 117°
2026-05-05 11:00 15.55536 77.74988 33264 ft 441 kts 117°
2026-05-05 11:00 15.54186 77.77841 33139 ft 442 kts 117°
2026-05-05 11:00 15.52833 77.80699 33056 ft 443 kts 117°
2026-05-05 11:01 15.50112 77.86459 32913 ft 444 kts 117°
2026-05-05 11:01 15.47391 77.92203 32775 ft 444 kts 117°
2026-05-05 11:02 15.44669 77.97956 32667 ft 444 kts 117°
2026-05-05 11:02 15.41948 78.03706 32616 ft 444 kts 117°
2026-05-05 11:03 15.39234 78.09449 32521 ft 444 kts 117°
2026-05-05 11:03 15.36514 78.15201 32425 ft 444 kts 117°
2026-05-05 11:04 15.33796 78.20952 32339 ft 444 kts 117°
2026-05-05 11:04 15.31080 78.26698 32222 ft 444 kts 117°
2026-05-05 11:05 15.28378 78.32409 32140 ft 443 kts 117°
2026-05-05 11:05 15.25650 78.38173 32060 ft 443 kts 117°
2026-05-05 11:06 15.22954 78.43869 31994 ft 443 kts 117°
2026-05-05 11:06 15.20232 78.49620 31905 ft 442 kts 117°
2026-05-05 11:07 15.17530 78.55328 31870 ft 441 kts 117°
2026-05-05 11:07 15.14836 78.61020 31866 ft 439 kts 117°
2026-05-05 11:08 15.12173 78.66649 31863 ft 437 kts 117°
2026-05-05 11:08 15.09518 78.72292 31882 ft 436 kts 117°
2026-05-05 11:09 15.06908 78.77936 31871 ft 435 kts 117°
2026-05-05 11:09 15.04308 78.83576 31870 ft 433 kts 117°
2026-05-05 11:10 15.01718 78.89206 31879 ft 433 kts 117°
2026-05-05 11:10 14.99129 78.94818 31876 ft 431 kts 117°
2026-05-05 11:11 14.96546 79.00434 31876 ft 430 kts 117°
2026-05-05 11:11 14.93990 79.05976 31868 ft 429 kts 117°
2026-05-05 11:12 14.91410 79.11562 31867 ft 428 kts 117°
2026-05-05 11:12 14.88849 79.17066 31860 ft 427 kts 117°
2026-05-05 11:13 14.86281 79.22581 31860 ft 426 kts 117°
2026-05-05 11:13 14.83713 79.28097 31854 ft 425 kts 117°
2026-05-05 11:14 14.81151 79.33601 31850 ft 424 kts 117°
2026-05-05 11:14 14.78597 79.39090 31851 ft 424 kts 117°
2026-05-05 11:15 14.76039 79.44586 31853 ft 422 kts 117°
2026-05-05 11:15 14.73494 79.50056 31850 ft 422 kts 117°
2026-05-05 11:16 14.70957 79.55508 31851 ft 421 kts 117°
2026-05-05 11:16 14.68416 79.60958 31844 ft 420 kts 117°
2026-05-05 11:17 14.65876 79.66395 31843 ft 420 kts 117°
2026-05-05 11:17 14.63357 79.71784 31842 ft 419 kts 117°
2026-05-05 11:18 14.61240 79.76312 31848 ft 418 kts 117°
2026-05-05 11:18 14.58304 79.82597 31848 ft 418 kts 117°
2026-05-05 11:19 14.55789 79.88001 31845 ft 417 kts 117°
2026-05-05 11:19 14.53698 79.92502 31846 ft 417 kts 117°
2026-05-05 11:20 14.50768 79.98815 31845 ft 417 kts 117°
2026-05-05 11:20 14.48684 80.03306 31849 ft 416 kts 117°
2026-05-05 11:21 14.46186 80.08687 31850 ft 416 kts 117°
2026-05-05 11:21 14.43684 80.14082 31852 ft 416 kts 117°
2026-05-05 11:22 14.41188 80.19461 31853 ft 415 kts 117°
2026-05-05 11:22 14.38689 80.24838 31853 ft 415 kts 117°
2026-05-05 11:23 14.36200 80.30196 31853 ft 415 kts 117°
2026-05-05 11:23 14.33714 80.35536 31854 ft 414 kts 117°
2026-05-05 11:24 14.31214 80.40911 31855 ft 414 kts 117°
2026-05-05 11:24 14.28738 80.46227 31856 ft 413 kts 117°
2026-05-05 11:25 14.26249 80.51586 31853 ft 413 kts 117°
2026-05-05 11:25 14.23768 80.56917 31862 ft 413 kts 117°
2026-05-05 11:26 14.21297 80.62250 31867 ft 412 kts 117°
2026-05-05 11:26 14.18841 80.67548 31866 ft 412 kts 117°
2026-05-05 11:27 14.16369 80.72888 31866 ft 412 kts 117°
2026-05-05 11:27 14.13901 80.78213 31873 ft 411 kts 117°
2026-05-05 11:28 14.11454 80.83501 31871 ft 411 kts 117°
2026-05-05 11:28 14.08998 80.88803 31868 ft 411 kts 117°
2026-05-05 11:29 14.06527 80.94153 31875 ft 411 kts 117°
2026-05-05 11:29 14.04098 80.99444 31881 ft 410 kts 117°
2026-05-05 11:30 14.01652 81.04740 31882 ft 409 kts 117°
2026-05-05 11:30 13.99203 81.10031 31887 ft 409 kts 117°
2026-05-05 11:31 13.96752 81.15323 31890 ft 409 kts 117°
2026-05-05 11:31 13.94310 81.20593 31886 ft 408 kts 117°
2026-05-05 11:32 13.91860 81.25877 31888 ft 408 kts 117°
2026-05-05 11:32 13.89422 81.31146 31887 ft 408 kts 117°
2026-05-05 11:33 13.86995 81.36444 31884 ft 408 kts 117°
2026-05-05 11:33 13.84579 81.41727 31883 ft 407 kts 117°
2026-05-05 11:34 13.82164 81.47005 31884 ft 407 kts 117°
2026-05-05 11:34 13.79755 81.52273 31891 ft 407 kts 117°
2026-05-05 11:35 13.77346 81.57539 31886 ft 407 kts 117°
2026-05-05 11:35 13.74954 81.62770 31886 ft 406 kts 117°
2026-05-05 11:36 13.72552 81.68033 31884 ft 406 kts 117°
2026-05-05 11:36 13.70171 81.73303 31892 ft 406 kts 117°
2026-05-05 11:37 13.67792 81.78577 31893 ft 406 kts 117°
2026-05-05 11:37 13.65420 81.83835 31893 ft 405 kts 117°
2026-05-05 11:38 13.63048 81.89093 31894 ft 405 kts 117°
2026-05-05 11:38 13.60676 81.94351 31893 ft 405 kts 117°
2026-05-05 11:39 13.58303 81.99610 31894 ft 405 kts 117°
2026-05-05 11:39 13.55934 82.04861 31892 ft 405 kts 117°
2026-05-05 11:40 13.53566 82.10108 31891 ft 405 kts 117°
2026-05-05 11:40 13.51198 82.15354 31891 ft 405 kts 117°
2026-05-05 11:41 13.48832 82.20598 31891 ft 404 kts 117°
2026-05-05 11:41 13.46468 82.25836 31893 ft 404 kts 117°
2026-05-05 11:42 13.44115 82.31050 31889 ft 404 kts 117°
2026-05-05 11:42 13.41752 82.36291 31889 ft 404 kts 117°
2026-05-05 11:43 13.39389 82.41537 31884 ft 404 kts 117°
2026-05-05 11:43 13.37030 82.46789 31890 ft 404 kts 117°
2026-05-05 11:44 13.34668 82.52027 31891 ft 404 kts 117°
2026-05-05 11:44 13.32301 82.57264 31895 ft 404 kts 117°
2026-05-05 11:45 13.29935 82.62496 31898 ft 404 kts 117°
2026-05-05 11:45 13.27581 82.67703 31900 ft 404 kts 117°
2026-05-05 11:46 13.25215 82.72934 31890 ft 404 kts 117°
2026-05-05 11:46 13.22850 82.78164 31888 ft 404 kts 117°
2026-05-05 11:47 13.20486 82.83405 31888 ft 404 kts 117°
2026-05-05 11:47 13.18128 82.88638 31893 ft 404 kts 117°
2026-05-05 11:48 13.14591 82.96491 31895 ft 404 kts 117°
2026-05-05 11:48 13.12234 83.01726 31895 ft 404 kts 117°
2026-05-05 11:49 13.09874 83.06966 31895 ft 404 kts 117°
2026-05-05 11:49 13.07517 83.12201 31895 ft 404 kts 117°
2026-05-05 11:50 13.05171 83.17410 31898 ft 404 kts 117°
2026-05-05 11:50 13.02823 83.22650 31901 ft 404 kts 117°
2026-05-05 11:51 13.00475 83.27893 31904 ft 404 kts 117°
2026-05-05 11:51 12.98131 83.33128 31905 ft 404 kts 117°
2026-05-05 11:52 12.95786 83.38363 31905 ft 404 kts 117°
2026-05-05 11:52 12.93438 83.43604 31905 ft 404 kts 117°
2026-05-05 11:53 12.91093 83.48839 31908 ft 404 kts 117°
2026-05-05 11:53 12.88742 83.54088 31908 ft 404 kts 117°
2026-05-05 11:54 12.86408 83.59332 31903 ft 404 kts 117°
2026-05-05 11:54 12.84081 83.64576 31903 ft 404 kts 117°
2026-05-05 11:55 12.81752 83.69825 31902 ft 405 kts 117°
2026-05-05 11:55 12.79439 83.75040 31903 ft 405 kts 117°
2026-05-05 11:56 12.77110 83.80288 31902 ft 405 kts 117°
2026-05-05 11:56 12.74775 83.85550 31902 ft 405 kts 117°
2026-05-05 11:57 12.72438 83.90815 31906 ft 405 kts 117°
2026-05-05 11:57 12.70116 83.96064 31909 ft 405 kts 116°
2026-05-05 11:58 12.67772 84.01318 31896 ft 406 kts 117°
2026-05-05 11:58 12.65416 84.06551 31906 ft 406 kts 117°
2026-05-05 11:59 12.63035 84.11833 31898 ft 406 kts 117°
2026-05-05 11:59 12.60675 84.17068 31903 ft 407 kts 117°
2026-05-05 12:00 12.58309 84.22313 31911 ft 407 kts 117°
2026-05-05 12:00 12.55938 84.27568 31914 ft 407 kts 117°
2026-05-05 12:01 12.53568 84.32842 31910 ft 407 kts 117°
2026-05-05 12:01 12.51215 84.38135 31910 ft 407 kts 117°
2026-05-05 12:02 12.48874 84.43409 31910 ft 408 kts 117°
2026-05-05 12:02 12.46542 84.48664 31910 ft 408 kts 117°
2026-05-05 12:03 12.44192 84.53954 31910 ft 408 kts 117°
2026-05-05 12:03 12.41845 84.59236 31910 ft 408 kts 117°
2026-05-05 12:04 12.39499 84.64512 31912 ft 408 kts 117°
2026-05-05 12:04 12.37149 84.69792 31905 ft 408 kts 117°
2026-05-05 12:05 12.35181 84.74202 31915 ft 409 kts 116°
2026-05-05 12:05 12.32783 84.79502 31924 ft 408 kts 117°
2026-05-05 12:06 12.30398 84.84738 31926 ft 409 kts 117°
2026-05-05 12:06 12.27993 84.90013 31927 ft 409 kts 117°
2026-05-05 12:07 12.25588 84.95284 31924 ft 409 kts 117°
2026-05-05 12:07 12.23184 85.00554 31925 ft 409 kts 117°
2026-05-05 12:08 12.20776 85.05830 31927 ft 410 kts 117°
2026-05-05 12:08 12.18369 85.11128 31925 ft 410 kts 117°
2026-05-05 12:09 12.15977 85.16400 31926 ft 410 kts 117°
2026-05-05 12:09 12.13580 85.21684 31927 ft 410 kts 117°
2026-05-05 12:10 12.11191 85.26951 31927 ft 410 kts 117°
2026-05-05 12:10 12.08796 85.32231 31928 ft 410 kts 117°
2026-05-05 12:11 12.06394 85.37530 31929 ft 411 kts 117°
2026-05-05 12:11 12.03995 85.42821 31929 ft 411 kts 117°
2026-05-05 12:12 12.01583 85.48131 31928 ft 411 kts 117°
2026-05-05 12:12 11.99168 85.53424 31930 ft 411 kts 116°
2026-05-05 12:13 11.96725 85.58706 31930 ft 411 kts 117°
2026-05-05 12:13 11.94290 85.63958 31931 ft 411 kts 117°
2026-05-05 12:14 11.91846 85.69230 31931 ft 411 kts 117°
2026-05-05 12:14 11.89391 85.74523 31934 ft 411 kts 117°
2026-05-05 12:15 11.86948 85.79792 31936 ft 412 kts 117°
2026-05-05 12:15 11.84496 85.85080 31937 ft 412 kts 117°
2026-05-05 12:16 11.82042 85.90366 31937 ft 412 kts 117°
2026-05-05 12:16 11.79586 85.95654 31937 ft 412 kts 117°
2026-05-05 12:17 11.77125 86.00953 31938 ft 412 kts 117°
2026-05-05 12:17 11.74691 86.06194 31938 ft 412 kts 117°
2026-05-05 12:18 11.72233 86.11485 31937 ft 412 kts 117°
2026-05-05 12:18 11.69773 86.16780 31938 ft 412 kts 117°
2026-05-05 12:19 11.67316 86.22071 31928 ft 413 kts 117°
2026-05-05 12:19 11.64871 86.27345 31928 ft 413 kts 117°
2026-05-05 12:20 11.62414 86.32648 31927 ft 413 kts 117°
2026-05-05 12:20 11.59957 86.37946 31927 ft 413 kts 117°
2026-05-05 12:21 11.57497 86.43252 31925 ft 413 kts 117°
2026-05-05 12:21 11.55041 86.48547 31925 ft 414 kts 117°
2026-05-05 12:22 11.52596 86.53819 31926 ft 414 kts 117°
2026-05-05 12:22 11.50131 86.59135 31923 ft 414 kts 117°
2026-05-05 12:23 11.47679 86.64449 31921 ft 414 kts 117°
2026-05-05 12:23 11.45231 86.69758 31921 ft 414 kts 117°
2026-05-05 12:24 11.42771 86.75092 31924 ft 415 kts 117°
2026-05-05 12:24 11.40321 86.80404 31927 ft 415 kts 117°
2026-05-05 12:25 11.37863 86.85736 31926 ft 415 kts 117°
2026-05-05 12:25 11.35421 86.91031 31927 ft 415 kts 117°
2026-05-05 12:26 11.32962 86.96362 31928 ft 416 kts 116°
2026-05-05 12:26 11.30474 87.01692 31929 ft 416 kts 117°
2026-05-05 12:27 11.27979 87.07014 31926 ft 416 kts 117°
2026-05-05 12:27 11.25487 87.12337 31926 ft 417 kts 117°
2026-05-05 12:28 11.22993 87.17663 31927 ft 417 kts 117°
2026-05-05 12:28 11.20491 87.23009 31928 ft 417 kts 117°